RH
7 6 6 6 5 5 5 4 4 4 4 4 4 4 3 4 4 4 5 5 5 5 6 7 8 8 8 9 9 9 10 10 10 9 8 7 8 7 8 9 7 9 11 20 34 36 35 38 39 42 45 47 48 51 59 71 82 84 82 81 74 71 72 71 70 69 69 70 70 70 70 70 70 71 73 73 73 72 72 72 69 67 66 63 64 63 63 66
7 7 6 6 6 5 5 5 5 4 4 4 4 4 3 3 3 4 4 5 5 5 6 5 6 6 7 8 9 9 9 10 10 11 11 10 9 7 8 8 8 7 7 19 32 33 34 35 37 39 39 43 44 48 53 64 78 82 81 79 73 72 71 69 70 69 69 70 70 70 69 72 72 70 71 71 70 69 71 70 68 68 65 62 61 61 61 64
8 8 7 7 6 6 5 5 5 5 5 5 4 4 4 3 4 3 4 4 4 5 5 5 5 6 6 7 8 9 8 9 13 17 18 16 13 10 8 8 8 6 6 15 23 28 31 31 35 35 34 38 41 44 49 56 69 76 78 78 73 72 72 69 68 68 68 68 70 69 69 73 72 69 70 71 70 68 70 68 67 67 65 62 59 60 61 61
9 9 8 8 7 6 6 5 5 5 4 4 4 4 4 4 4 4 4 4 4 5 5 5 5 5 6 5 7 7 7 11 16 18 19 18 15 13 10 9 9 6 7 14 18 24 29 30 32 32 30 32 35 40 44 49 61 71 72 74 74 72 73 72 68 67 66 67 71 69 69 73 71 69 69 71 71 69 70 68 66 66 65 62 59 59 61 59
9 9 9 8 8 8 7 6 5 5 4 4 4 4 4 3 4 3 4 4 4 4 5 5 5 5 6 5 6 6 7 11 15 15 17 16 15 14 11 9 9 5 9 17 17 19 25 29 29 29 29 29 31 34 39 43 55 67 67 69 73 72 75 74 68 68 66 65 69 68 69 73 70 67 67 69 72 70 69 67 65 65 64 62 58 58 59 56
10 10 9 9 9 8 8 7 6 5 5 4 4 3 3 3 3 4 3 4 4 5 5 5 5 5 5 6 5 5 6 10 13 15 15 15 15 14 13 12 9 6 14 19 16 17 21 26 26 27 27 27 29 31 34 38 46 60 65 67 70 70 74 73 69 68 67 65 67 68 69 70 67 66 65 68 72 70 67 64 62 64 62 60 59 58 58 55
10 10 10 10 9 9 8 8 7 6 5 5 4 4 4 3 3 3 3 4 4 5 5 5 5 5 6 6 6 7 8 8 11 13 14 15 15 15 15 15 10 9 17 19 16 17 18 20 21 24 26 26 28 29 33 36 38 49 60 67 68 69 71 71 71 69 67 67 66 66 67 67 66 67 66 66 71 68 65 63 62 65 62 60 61 59 58 55
10 10 11 11 10 10 9 9 8 7 6 5 5 5 4 4 4 4 4 3 4 4 5 5 6 6 7 7 8 9 8 8 9 11 14 16 16 16 15 16 13 13 18 17 15 15 15 15 17 20 23 26 28 30 32 33 34 38 46 58 64 67 70 70 70 69 68 67 65 64 65 66 68 69 67 66 69 67 65 65 63 65 64 62 62 61 57 55
9 10 11 11 11 11 10 9 9 8 7 6 6 5 5 4 4 4 4 4 4 4 5 6 6 7 7 7 10 9 7 8 9 9 12 15 17 18 16 16 15 16 17 15 14 14 13 13 13 15 18 24 28 30 30 30 34 36 36 46 58 64 68 68 68 69 69 66 63 64 65 67 67 67 66 66 68 66 65 68 66 64 63 63 63 61 57 53
10 9 10 11 11 11 10 10 9 8 7 7 6 6 6 5 5 5 4 5 5 5 5 6 6 6 6 8 10 8 6 9 11 11 11 12 15 18 19 17 16 19 18 15 14 13 13 12 11 13 14 20 26 28 28 28 34 38 33 38 49 57 64 66 67 68 68 65 62 63 65 66 65 64 65 66 65 65 66 68 68 65 64 63 61 59 56 53
9 9 10 10 12 12 11 10 8 8 7 7 7 6 6 6 5 5 5 5 6 6 6 6 7 7 8 10 10 7 7 9 11 11 10 11 13 19 24 23 19 20 19 15 14 13 12 12 11 11 11 16 21 24 26 25 31 36 33 34 41 49 57 61 64 65 66 64 61 61 63 64 64 63 65 66 63 64 66 66 68 66 64 61 58 57 54 53
9 8 8 9 10 11 10 9 8 8 7 6 6 6 6 6 6 6 6 7 6 7 7 8 9 8 10 12 11 9 9 9 9 10 9 10 11 17 25 26 23 21 18 15 14 13 12 12 11 10 10 13 18 22 26 25 27 31 29 32 39 44 50 56 60 62 63 63 61 60 62 65 66 65 65 66 63 64 65 65 67 66 63 60 57 55 53 52
8 8 7 8 9 10 10 8 7 7 6 6 6 6 6 6 6 6 7 7 6 8 8 9 9 9 12 12 10 10 10 9 8 9 9 10 10 13 20 25 27 23 18 16 14 14 13 12 11 10 10 11 17 22 25 26 26 26 25 29 37 39 42 50 56 60 61 61 60 59 64 66 64 64 65 64 63 63 64 65 66 65 63 61 57 52 50 50
8 8 7 7 7 9 9 7 7 7 6 5 5 5 5 5 6 6 7 6 8 9 9 11 9 10 13 11 8 8 9 10 9 8 9 11 13 15 16 22 29 27 21 17 16 15 15 14 12 12 10 10 18 22 22 26 27 25 26 28 33 36 37 43 50 56 59 59 59 59 64 66 61 62 63 63 63 62 63 65 64 64 63 61 57 50 48 48
8 8 7 7 7 8 8 7 7 6 6 5 4 5 4 5 6 6 6 7 9 10 10 11 10 13 14 9 9 8 7 9 9 8 8 10 15 18 18 21 28 27 23 19 17 17 16 16 13 12 12 10 15 18 18 24 27 28 28 27 30 33 36 41 46 51 56 57 58 60 63 63 59 61 63 63 63 61 62 64 62 63 63 60 54 48 47 47
7 7 6 6 7 8 8 7 6 6 6 5 4 4 4 5 5 5 6 7 10 9 9 12 12 15 14 9 9 9 8 8 8 8 9 8 11 18 20 21 24 25 22 20 19 18 16 16 14 12 14 13 11 13 16 19 23 27 27 25 26 29 34 41 43 47 54 57 56 59 62 61 59 61 64 64 63 61 62 63 63 63 62 59 52 48 47 47
7 7 6 6 7 8 8 7 7 6 6 6 5 5 5 5 6 6 6 7 9 9 9 10 12 15 14 9 10 10 9 9 8 8 9 8 10 16 19 20 23 22 20 20 20 19 17 16 15 13 16 15 11 11 15 17 19 22 24 24 24 26 30 38 42 44 49 53 55 58 61 61 59 58 61 64 63 61 61 63 64 65 63 58 53 50 47 46
7 7 6 7 7 8 8 7 7 7 7 6 5 6 6 6 6 6 6 7 9 10 10 9 10 14 15 10 11 10 10 10 10 9 9 8 11 16 18 19 22 21 18 18 19 20 18 17 17 17 16 15 13 11 12 14 16 17 21 23 22 24 29 35 42 46 46 50 54 57 61 62 60 57 59 65 65 62 62 64 65 65 64 59 54 52 50 47
7 7 7 7 8 8 8 8 8 7 8 7 6 7 7 7 8 7 8 8 9 10 11 9 8 11 12 9 9 10 10 11 9 11 10 9 13 17 18 19 21 19 16 16 18 19 19 21 22 20 17 14 13 11 10 11 13 15 17 21 21 23 28 31 41 47 47 51 54 55 59 62 61 59 61 66 64 61 63 64 64 64 63 60 56 54 53 51
8 7 7 8 9 8 8 8 8 8 8 8 8 9 10 10 9 9 9 8 8 9 9 9 8 8 8 7 9 9 10 11 10 11 11 12 15 17 18 20 20 17 15 15 18 19 19 24 24 20 16 15 13 12 11 10 14 16 17 20 20 22 26 28 35 42 43 50 54 53 57 60 61 59 60 65 64 60 62 63 62 62 61 60 58 55 54 54
8 7 7 8 9 9 9 8 9 9 8 9 10 11 11 11 10 10 11 9 8 9 9 9 8 8 8 8 8 9 10 11 11 12 12 14 16 17 18 19 19 17 14 16 18 19 20 23 23 20 17 16 15 14 12 10 11 15 15 18 20 21 24 25 31 37 38 43 50 53 54 57 59 59 59 63 62 59 59 59 60 60 60 59 60 57 55 56
9 8 7 8 10 10 9 9 9 9 9 9 11 11 13 12 11 11 12 9 8 9 9 9 9 8 8 9 10 10 11 11 11 12 13 14 16 21 22 19 18 17 15 17 19 20 21 20 19 20 19 17 16 14 13 11 12 13 13 15 18 19 22 24 28 33 34 37 43 49 51 53 55 56 56 57 58 58 57 57 59 60 58 58 60 60 57 56
9 8 7 8 10 10 10 10 9 10 10 10 11 12 12 12 11 10 12 11 8 9 10 9 9 8 8 10 11 11 11 11 11 12 13 14 16 21 23 20 19 18 17 19 19 20 20 17 16 19 19 18 18 17 16 14 13 12 9 10 13 16 20 24 26 29 31 33 38 45 48 49 52 52 52 53 55 57 56 55 58 59 57 57 59 60 60 59
9 8 8 8 9 11 11 10 11 12 11 11 12 12 12 12 12 12 13 11 8 9 10 9 10 9 9 10 10 10 11 11 11 12 12 14 16 17 18 21 22 21 19 19 19 19 18 16 15 17 19 19 20 19 17 15 13 10 8 7 10 14 17 22 26 28 29 30 34 41 45 46 48 50 49 49 53 56 55 53 54 56 57 57 56 57 59 60
9 9 9 8 9 11 12 13 14 13 13 14 15 13 13 14 13 14 14 12 11 11 11 11 10 10 10 9 10 10 10 11 11 12 13 13 14 15 18 23 24 23 23 21 19 19 17 17 17 17 18 20 21 18 16 15 13 11 10 8 9 13 16 20 24 27 29 28 28 35 43 43 42 46 48 47 50 55 54 51 50 53 57 57 56 56 57 59
10 9 9 9 10 11 14 16 15 15 16 16 16 15 15 16 15 16 16 14 13 13 13 13 11 11 11 10 11 10 11 11 10 11 13 13 13 14 17 20 22 23 24 23 21 19 17 16 18 18 18 19 20 19 17 16 14 12 11 9 8 11 15 18 21 25 28 29 28 32 39 40 40 44 47 47 49 52 53 50 47 50 55 57 57 56 56 58
12 11 11 11 11 12 16 17 16 16 17 17 17 16 17 16 16 16 17 16 14 15 15 14 13 13 12 11 12 12 14 14 12 12 13 13 14 14 15 18 20 22 23 26 25 21 19 18 18 20 19 18 19 19 19 18 16 14 12 11 9 8 12 15 18 22 24 27 31 32 34 37 39 42 44 47 47 49 52 50 46 47 51 57 58 57 56 57
15 13 12 13 13 14 16 17 17 18 19 18 17 17 17 17 17 18 19 18 17 17 16 15 14 13 12 12 11 12 14 14 14 15 14 14 15 14 15 17 19 20 22 25 24 21 21 19 19 20 20 19 19 19 20 20 18 15 14 14 12 9 9 11 14 17 21 26 31 31 32 35 36 37 42 46 47 47 48 48 46 43 47 55 59 57 56 57
15 13 13 14 14 15 17 17 18 19 19 19 19 19 18 18 20 20 19 19 19 17 17 16 16 15 14 14 13 12 12 12 13 14 13 13 15 14 15 17 17 18 20 22 21 23 24 22 21 22 21 20 20 20 21 22 21 18 17 17 15 12 9 8 10 15 22 27 28 28 29 32 33 34 37 42 44 43 43 45 45 41 43 52 59 58 56 56
16 15 15 16 17 17 18 19 20 20 19 20 21 21 19 21 22 22 23 22 20 18 18 17 17 16 16 16 15 13 12 12 12 12 12 13 13 15 16 15 16 17 18 21 20 22 25 23 22 23 23 21 21 22 22 23 24 21 18 18 17 15 12 11 10 14 21 26 24 24 28 30 31 31 33 36 37 36 39 42 42 41 40 48 57 58 55 55
18 18 18 18 19 20 20 22 22 20 20 21 23 22 21 22 22 22 25 23 20 19 18 18 17 17 17 16 16 14 14 13 12 12 16 17 16 16 17 16 16 16 17 19 20 21 22 22 22 23 24 23 22 23 23 24 26 24 20 19 20 19 19 17 14 15 20 22 21 20 24 28 30 30 30 33 34 32 33 36 39 40 39 44 54 57 55 54
20 20 20 20 22 22 23 25 23 21 23 24 25 25 24 25 24 23 24 22 20 20 19 19 18 17 18 18 18 16 16 16 15 14 17 19 21 20 18 19 19 18 18 18 18 20 20 18 19 21 23 24 23 24 23 23 26 27 24 22 21 21 27 26 20 19 19 18 18 17 21 25 26 27 28 29 33 32 29 31 35 37 38 43 51 56 55 55
23 23 23 25 26 26 27 26 26 25 26 27 28 28 25 27 28 26 23 22 22 21 20 20 19 19 19 19 19 18 17 18 17 16 18 19 23 22 19 19 19 19 22 23 22 22 21 18 18 19 22 24 22 23 24 23 24 26 26 25 22 22 31 33 24 22 21 18 17 16 18 21 20 21 24 27 30 31 28 28 32 34 37 43 49 53 55 54
26 27 27 29 29 29 29 28 28 28 28 29 30 29 28 30 31 28 26 24 23 22 21 21 21 21 20 19 18 17 17 18 16 17 20 22 24 25 24 24 20 18 21 23 23 23 24 23 20 19 21 23 21 20 24 25 24 26 27 27 24 22 29 32 24 22 21 19 19 17 16 19 19 18 19 21 24 26 27 28 30 32 35 42 49 51 53 53
30 30 31 32 32 31 30 29 29 29 30 32 31 31 32 34 32 29 28 27 25 25 23 22 21 21 20 19 18 17 17 18 16 16 19 22 25 28 30 28 24 21 21 21 22 23 24 26 26 24 22 24 24 22 24 28 27 26 28 29 27 22 24 27 23 21 20 20 19 19 18 17 17 16 16 17 18 21 25 27 29 30 33 41 48 50 51 52
33 33 34 35 35 33 31 31 31 31 32 32 33 34 35 36 34 32 32 31 28 26 24 23 22 21 21 20 20 20 18 18 18 16 18 21 24 27 30 30 26 24 24 24 27 26 25 26 28 27 25 25 27 27 26 28 29 29 29 30 28 23 22 23 22 20 22 23 21 21 21 19 15 13 12 13 15 18 21 24 26 28 31 39 45 49 50 51
35 35 37 39 37 34 33 33 32 31 32 33 36 38 37 36 36 33 33 31 28 26 24 25 25 24 25 23 22 22 20 20 20 19 20 21 24 27 30 30 28 26 25 25 27 27 26 27 27 25 27 28 28 29 29 26 27 32 33 30 29 28 25 24 24 22 23 25 22 19 19 18 16 13 10 9 11 15 17 21 24 27 31 37 42 46 49 49
38 38 40 40 37 35 35 34 33 32 32 35 40 40 37 37 35 32 31 28 27 27 25 26 29 28 28 28 28 26 22 23 24 22 21 23 27 32 32 32 31 28 25 26 27 26 24 24 23 22 27 30 26 27 31 29 26 31 36 35 33 33 30 28 29 28 26 24 22 18 16 16 16 14 12 9 8 10 14 17 21 26 30 36 40 44 47 47
41 40 41 41 38 36 36 35 35 34 34 37 42 40 36 36 34 30 30 28 27 28 28 30 30 30 31 30 31 30 27 27 26 25 26 27 30 34 33 33 34 31 27 26 27 27 25 24 25 25 28 29 28 30 33 32 28 28 34 38 36 36 36 33 30 29 27 25 24 21 18 17 16 13 12 12 9 9 12 14 18 24 30 35 39 42 45 46
42 42 43 42 39 38 37 36 35 34 34 37 40 39 36 35 33 31 31 30 31 31 31 33 33 34 37 35 33 34 31 30 29 28 32 32 31 35 34 32 32 31 29 27 27 28 28 27 28 31 32 29 28 31 30 30 32 31 31 36 37 38 38 35 31 29 26 26 26 25 22 20 17 12 10 11 10 10 12 13 17 24 29 34 38 41 43 45
45 44 45 42 38 37 37 36 34 33 35 37 37 36 36 35 35 35 34 34 35 34 34 35 36 38 42 41 41 42 40 38 37 35 39 37 34 38 39 33 30 29 29 30 31 32 33 32 31 31 34 31 28 31 31 30 36 37 34 34 34 37 40 38 32 30 28 26 26 26 25 21 18 15 10 8 8 10 12 13 17 24 30 34 38 41 42 43
45 45 45 41 37 37 38 36 30 31 36 36 35 35 35 37 39 40 39 38 38 36 35 37 38 41 45 46 49 51 49 50 49 45 47 46 42 43 41 34 29 29 30 33 36 37 37 37 35 31 33 33 29 32 35 33 34 37 36 34 33 36 42 42 35 31 30 29 26 26 27 23 20 18 14 9 8 8 10 12 15 21 28 34 38 40 41 42
45 45 45 41 37 36 38 36 33 33 34 34 37 38 38 42 43 42 42 40 39 37 37 40 43 46 49 51 52 54 54 56 54 49 51 52 50 48 43 34 31 32 34 36 41 43 40 39 38 33 31 31 28 30 35 35 34 35 36 37 37 38 42 45 42 37 34 31 29 28 27 25 22 20 16 11 9 9 10 12 14 18 26 33 38 40 41 42
46 46 44 41 38 36 35 37 41 41 39 40 43 43 43 45 44 43 43 42 40 40 43 49 52 52 53 54 54 55 58 60 57 53 53 54 53 49 43 36 34 36 39 41 46 50 48 45 42 40 37 34 29 29 33 37 37 34 35 40 42 42 43 44 42 41 39 35 33 33 30 25 22 21 17 13 11 10 10 13 15 18 25 33 38 40 40 40
46 47 44 39 39 35 32 37 43 46 46 46 47 45 44 45 44 43 43 44 45 46 50 56 57 55 55 56 58 60 62 64 62 60 59 58 54 49 44 37 34 39 41 40 40 44 50 52 50 50 45 36 34 37 37 42 43 35 34 42 43 42 44 42 39 41 42 40 39 38 37 31 26 24 21 15 12 11 11 13 15 18 25 31 35 38 38 39
46 48 45 41 41 40 40 43 47 49 48 47 48 47 45 44 45 44 43 47 50 50 54 57 57 58 60 63 66 69 70 69 69 68 68 65 61 56 49 42 37 38 37 33 32 38 49 53 52 54 51 42 47 53 47 48 51 43 40 45 43 41 42 41 42 42 42 42 41 39 41 38 31 27 24 17 13 12 11 13 16 19 26 31 34 35 36 39
46 48 45 43 44 46 47 48 50 52 50 48 49 49 46 46 47 47 46 49 51 51 55 57 58 63 68 71 75 76 76 74 73 74 75 73 71 66 57 49 45 40 34 33 34 38 43 46 44 49 50 45 50 55 49 48 51 49 49 48 44 42 41 41 42 42 43 46 42 38 41 40 32 29 27 21 18 15 14 17 21 22 25 30 33 34 35 36
48 48 46 45 45 46 46 46 51 54 53 52 51 50 49 49 49 49 49 49 52 54 58 63 64 66 70 73 75 77 79 78 76 76 76 74 72 69 62 56 53 46 39 38 39 38 40 39 37 41 44 42 43 48 49 48 47 49 50 47 43 43 42 41 41 41 45 49 45 42 45 42 34 31 29 24 21 18 17 21 24 24 26 30 32 33 34 34
49 48 47 45 44 44 43 44 51 54 53 54 54 51 51 51 50 51 50 51 56 59 60 66 69 67 68 72 74 78 80 77 75 74 72 70 68 66 64 62 58 52 47 45 43 42 40 37 34 38 42 41 39 42 46 47 44 46 48 44 42 44 43 42 41 40 43 46 45 47 49 44 35 32 30 25 22 18 16 18 22 25 28 30 33 35 34 34
53 51 48 46 47 48 46 48 53 55 53 54 56 53 52 53 52 50 50 53 59 61 60 65 67 65 68 71 73 76 77 75 75 72 68 67 66 65 65 64 61 57 53 50 48 46 43 40 39 42 44 40 38 39 44 45 44 45 47 43 40 42 44 43 41 39 40 42 44 48 50 45 36 33 32 26 22 20 16 16 21 26 28 29 34 36 35 35
54 52 50 50 50 50 51 52 53 55 55 56 58 55 53 55 52 48 51 53 55 59 60 60 59 59 62 67 69 72 72 68 67 66 62 64 65 64 63 62 61 60 57 55 52 49 48 45 42 45 44 36 33 37 40 41 41 42 46 47 41 40 44 43 40 40 39 41 45 46 48 47 40 35 33 29 26 24 19 17 20 25 29 31 33 35 37 38
54 53 51 52 52 49 52 55 53 55 57 57 58 57 56 56 51 47 52 52 49 52 54 52 53 55 58 63 65 62 58 56 56 56 55 56 56 56 58 58 58 60 59 58 55 53 51 46 42 46 45 36 32 38 41 43 45 41 41 46 42 38 42 42 41 46 48 46 47 47 49 49 42 36 35 32 30 29 26 26 26 26 29 32 33 35 36 37